TimeEST,TemperatureF,Dew PointF,Humidity,Sea Level PressureIn,VisibilityMPH,Wind Direction,Wind SpeedMPH,Gust SpeedMPH,PrecipitationIn,Events,Conditions,WindDirDegrees,DateUTC
12:15 AM,57.0,51.4,82,30.16,10.0,SSW,9.2,-,N/A,,Mostly Cloudy,210,2012-12-05 05:15:00
12:35 AM,57.2,51.3,81,30.14,10.0,SSW,9.2,-,N/A,,Scattered Clouds,210,2012-12-05 05:35:00
12:55 AM,58.1,51.6,79,30.14,10.0,SW,11.5,-,N/A,,Scattered Clouds,220,2012-12-05 05:55:00
1:15 AM,58.3,51.8,79,30.13,10.0,SW,9.2,-,N/A,,Mostly Cloudy,220,2012-12-05 06:15:00
1:35 AM,58.1,51.6,79,30.14,10.0,SW,9.2,-,N/A,,Mostly Cloudy,220,2012-12-05 06:35:00
1:55 AM,58.6,52.2,79,30.13,10.0,SSW,9.2,-,N/A,,Mostly Cloudy,210,2012-12-05 06:55:00
2:15 AM,58.3,52.0,80,30.13,10.0,SSW,9.2,-,N/A,,Mostly Cloudy,210,2012-12-05 07:15:00
2:55 AM,59.2,52.7,79,30.12,10.0,SW,10.4,16.1,N/A,,Overcast,220,2012-12-05 07:55:00
3:15 AM,59.0,52.7,80,30.12,10.0,SSW,10.4,-,N/A,,Overcast,210,2012-12-05 08:15:00
3:35 AM,59.0,52.7,80,30.12,10.0,SSW,9.2,17.3,N/A,,Overcast,210,2012-12-05 08:35:00
3:55 AM,58.6,52.9,81,30.11,10.0,SSW,10.4,-,N/A,,Overcast,210,2012-12-05 08:55:00
4:15 AM,58.3,52.9,82,30.11,10.0,SSW,9.2,-,N/A,,Overcast,210,2012-12-05 09:15:00
4:35 AM,58.1,53.1,83,30.11,10.0,SW,8.1,-,N/A,,Mostly Cloudy,220,2012-12-05 09:35:00
4:55 AM,58.1,53.1,83,30.11,10.0,SW,8.1,-,N/A,,Mostly Cloudy,220,2012-12-05 09:55:00
5:15 AM,57.9,53.2,84,30.10,10.0,SW,8.1,-,N/A,,Overcast,220,2012-12-05 10:15:00
5:35 AM,58.1,53.4,84,30.11,10.0,SSW,10.4,-,N/A,,Overcast,210,2012-12-05 10:35:00
5:55 AM,58.1,53.4,84,30.11,10.0,SW,9.2,-,N/A,,Overcast,220,2012-12-05 10:55:00
6:15 AM,57.9,53.2,84,30.11,10.0,SW,8.1,-,N/A,,Mostly Cloudy,220,2012-12-05 11:15:00
6:35 AM,57.4,53.6,87,30.11,10.0,SSW,9.2,-,N/A,,Mostly Cloudy,210,2012-12-05 11:35:00
6:55 AM,57.7,53.6,86,30.11,10.0,SSW,8.1,-,N/A,,Overcast,210,2012-12-05 11:55:00
7:15 AM,57.7,53.8,87,30.12,10.0,SW,8.1,-,N/A,,Overcast,220,2012-12-05 12:15:00
7:35 AM,57.6,53.8,87,30.12,10.0,SW,6.9,-,N/A,,Overcast,220,2012-12-05 12:35:00
7:55 AM,57.7,54.0,87,30.13,10.0,SW,6.9,-,N/A,,Overcast,220,2012-12-05 12:55:00
9:35 AM,58.1,55.4,91,30.17,10.0,SW,4.6,-,N/A,Rain,Rain,230,2012-12-05 14:35:00
9:55 AM,58.3,55.6,91,30.18,7.0,WSW,3.5,-,N/A,Rain,Light Rain,250,2012-12-05 14:55:00
10:15 AM,58.5,56.3,93,30.18,7.0,WSW,3.5,-,0.01,Rain,Light Rain,250,2012-12-05 15:15:00
10:35 AM,59.0,56.3,91,30.18,7.0,West,3.5,-,0.01,,Light Drizzle,260,2012-12-05 15:35:00
10:55 AM,59.0,56.3,91,30.18,10.0,West,4.6,-,0.01,Rain,Light Rain,280,2012-12-05 15:55:00
11:15 AM,59.0,55.9,90,30.17,7.0,NW,6.9,-,0.01,Rain,Light Rain,310,2012-12-05 16:15:00
11:35 AM,58.5,55.4,90,30.17,10.0,NW,4.6,-,0.02,Rain,Light Rain,310,2012-12-05 16:35:00
11:55 AM,58.3,55.4,90,30.16,10.0,NNW,3.5,-,0.02,Rain,Light Rain,330,2012-12-05 16:55:00
12:15 PM,58.3,55.4,90,30.16,7.0,NNW,4.6,-,0.01,Rain,Light Rain,340,2012-12-05 17:15:00
12:35 PM,58.1,55.4,91,30.16,10.0,NNW,3.5,-,0.01,Rain,Light Rain,330,2012-12-05 17:35:00
12:55 PM,56.8,54.1,91,30.16,7.0,NE,4.6,-,0.02,Rain,Rain,40,2012-12-05 17:55:00
1:15 PM,57.0,54.7,92,30.15,10.0,ENE,3.5,-,0.01,Rain,Light Rain,60,2012-12-05 18:15:00
1:35 PM,56.7,54.5,92,30.14,7.0,ENE,4.6,-,0.01,,Light Drizzle,60,2012-12-05 18:35:00
1:55 PM,56.1,53.8,92,30.14,10.0,NNE,5.8,-,0.01,,Overcast,30,2012-12-05 18:55:00
2:15 PM,56.1,53.6,91,30.15,10.0,NNE,4.6,-,N/A,Rain,Light Rain,30,2012-12-05 19:15:00
2:35 PM,56.3,53.8,91,30.15,10.0,NE,3.5,-,N/A,Rain,Light Rain,50,2012-12-05 19:35:00
2:55 PM,56.3,53.1,89,30.16,10.0,ENE,3.5,-,N/A,,Overcast,70,2012-12-05 19:55:00
3:15 PM,55.8,51.4,85,30.16,10.0,ENE,4.6,-,N/A,,Overcast,60,2012-12-05 20:15:00
3:35 PM,54.9,49.1,81,30.16,10.0,East,3.5,-,N/A,,Overcast,80,2012-12-05 20:35:00
3:55 PM,54.3,47.5,78,30.16,10.0,East,3.5,-,N/A,,Overcast,90,2012-12-05 20:55:00
4:15 PM,54.3,46.9,76,30.16,10.0,Calm,Calm,-,N/A,,Overcast,0,2012-12-05 21:15:00
4:35 PM,54.3,47.3,77,30.16,10.0,Calm,Calm,-,N/A,,Overcast,0,2012-12-05 21:35:00
4:55 PM,53.8,46.9,78,30.16,10.0,Calm,Calm,-,N/A,,Overcast,0,2012-12-05 21:55:00
5:15 PM,53.6,48.0,81,30.17,10.0,Calm,Calm,-,N/A,,Overcast,0,2012-12-05 22:15:00
5:35 PM,53.4,46.8,78,30.17,10.0,Calm,Calm,-,N/A,,Overcast,0,2012-12-05 22:35:00
5:55 PM,53.1,46.9,80,30.18,10.0,Calm,Calm,-,N/A,,Overcast,0,2012-12-05 22:55:00
6:15 PM,53.1,45.9,77,30.19,10.0,Calm,Calm,-,N/A,,Overcast,0,2012-12-05 23:15:00
6:35 PM,53.1,46.2,78,30.18,10.0,Calm,Calm,-,N/A,,Overcast,0,2012-12-05 23:35:00
6:55 PM,52.2,45.7,79,30.19,4.0,Calm,Calm,-,N/A,,Haze,0,2012-12-05 23:55:00
7:15 PM,50.2,47.1,89,30.19,7.0,Calm,Calm,-,N/A,,Scattered Clouds,0,2012-12-06 00:15:00
7:35 PM,48.6,46.4,92,30.20,10.0,Calm,Calm,-,N/A,,Clear,0,2012-12-06 00:35:00
7:55 PM,48.0,45.9,92,30.20,10.0,Calm,Calm,-,N/A,,Clear,0,2012-12-06 00:55:00
8:15 PM,47.7,45.9,93,30.20,5.0,Calm,Calm,-,N/A,,Clear,0,2012-12-06 01:15:00
8:35 PM,46.9,45.5,95,30.20,5.0,Calm,Calm,-,N/A,,Clear,0,2012-12-06 01:35:00
8:55 PM,45.5,44.2,95,30.21,0.8,Calm,Calm,-,N/A,,Mist,0,2012-12-06 01:55:00
9:15 PM,45.3,44.1,95,30.21,0.5,Calm,Calm,-,N/A,Fog,Fog,0,2012-12-06 02:15:00
9:35 PM,43.9,42.8,96,30.21,0.5,Calm,Calm,-,N/A,Fog,Fog,0,2012-12-06 02:35:00
9:55 PM,42.6,41.4,95,30.21,1.2,Calm,Calm,-,N/A,,Mist,0,2012-12-06 02:55:00
10:15 PM,42.8,41.5,95,30.21,0.8,SW,3.5,-,N/A,,Mist,220,2012-12-06 03:15:00
10:35 PM,41.4,40.3,96,30.21,1.2,Calm,Calm,-,N/A,,Mist,0,2012-12-06 03:35:00
10:55 PM,39.9,38.7,95,30.21,1.8,Calm,Calm,-,N/A,,Mist,0,2012-12-06 03:55:00
11:15 PM,44.1,43.0,96,30.21,3.0,Calm,Calm,-,N/A,,Clear,0,2012-12-06 04:15:00
11:35 PM,40.1,39.2,97,30.21,7.0,Calm,Calm,-,N/A,,Clear,0,2012-12-06 04:35:00
11:55 PM,40.8,39.9,97,30.22,1.5,NNE,5.8,-,N/A,,Mist,20,2012-12-06 04:55:00